sat.trackr.live / text

‹ back to catalog

STARLINK-36702

NORAD 67714 · 2026-025X

PAYLOAD ACTIVE UNKNOWN

§ Identity

Operator
Country
US
Launch date
2026-02-07
Launch site
AFWTR
Launch vehicle
Mass (kg)
RCS (m²)

Purposes: comms

External: N2YO · Heavens-Above · Gunter

§ Orbital elements

Epoch: 2026-05-25T01:23:42.908064Z

Period
93.91 min
Inclination
97.2852°
Eccentricity
0.0001164
Mean motion
15.33430347 rev/d
Perigee alt
464.8 km
Apogee alt
466.4 km
Semi-major
6,843.7 km
B*
-2.6420e-4
RAAN
256.6327°
Arg perigee
86.1901°
Mean anomaly
273.9475°
Rev number
1,771

§ Raw data

STARLINK-367021 67714U 26025X   26145.05813551 -.00008591  00000+0 -26420-3 0  99972 67714  97.2852 256.6327 0001164  86.1901 273.9475 15.33430347 17714

JSON: /api/v1/satellites/67714 · /tle

For live sub-satellite position, see the globe view (requires WebGL).

§ Visibility from observer

Set your observer location to see the next 7 days of passes ≥ 10°. The values pass through the URL so the page stays shareable.

No JS? Fill the form by hand. The geolocation button needs JavaScript.